• In Hungary
  • List of Countries
  • For 7 days
  • Water Temperature
  • Satellite Maps
  • Weather Map
  • News
  • Weather Widgets
  • user-avatar
    Login

    Hourly Weather Potiivka

    Today, 25 November, Saturday

    Time Temperature Precipitation Wind Pressure Humidity
    00:00 -3°C° 0 mm 4 mps 749 mmHg 83%
    01:00 -3°C° 0 mm 4 mps 749 mmHg 86%
    02:00 -2°C° 0 mm 3 mps 749 mmHg 88%
    03:00 -3°C° 0 mm 4 mps 749 mmHg 90%
    04:00 -3°C° 0 mm 4 mps 748 mmHg 91%
    05:00 -2°C° 0 mm 4 mps 748 mmHg 92%
    06:00 -2°C° 0 mm 4 mps 748 mmHg 93%
    07:00 -1°C° 0 mm 4 mps 748 mmHg 93%
    08:00 -1°C° 0 mm 4 mps 748 mmHg 93%
    09:00 0°C° 0 mm 4 mps 748 mmHg 91%
    10:00 +1°C° 0 mm 5 mps 748 mmHg 88%
    11:00 +2°C° 0 mm 5 mps 748 mmHg 86%
    12:00 +2°C° 0 mm 5 mps 748 mmHg 86%
    13:00 +3°C° 0 mm 4 mps 747 mmHg 86%
    14:00 +4°C° 0 mm 4 mps 747 mmHg 86%
    15:00 +3°C° 0 mm 4 mps 747 mmHg 88%
    16:00 +3°C° 0 mm 4 mps 747 mmHg 90%
    17:00 +2°C° 0 mm 3 mps 747 mmHg 92%
    18:00 +2°C° 0 mm 3 mps 746 mmHg 93%
    19:00 +1°C° 0 mm 4 mps 746 mmHg 94%
    20:00 +1°C° 0 mm 4 mps 746 mmHg 94%
    21:00 +1°C° 0 mm 4 mps 746 mmHg 94%
    22:00 +1°C° 0 mm 4 mps 746 mmHg 94%
    23:00 +1°C° 0 mm 4 mps 745 mmHg 94%

    Tomorrow, 26 November, Sunday

    Time Temperature Precipitation Wind Pressure Humidity
    00:00 +1°C° 0 mm 4 mps 745 mmHg 94%
    01:00 +3°C° 0 mm 4 mps 745 mmHg 93%
    02:00 +3°C° 0 mm 4 mps 745 mmHg 93%
    03:00 +3°C° 0 mm 4 mps 745 mmHg 93%
    04:00 +3°C° 0 mm 5 mps 745 mmHg 94%
    05:00 +3°C° 0 mm 5 mps 745 mmHg 94%
    06:00 +3°C° 0 mm 5 mps 745 mmHg 94%
    07:00 +3°C° 0 mm 5 mps 745 mmHg 94%
    08:00 +5°C° 0 mm 5 mps 745 mmHg 94%
    09:00 +5°C° 0 mm 5 mps 745 mmHg 91%
    10:00 +6°C° 0 mm 5 mps 745 mmHg 88%
    11:00 +7°C° 0 mm 5 mps 746 mmHg 85%
    12:00 +7°C° 0 mm 5 mps 745 mmHg 84%
    13:00 +7°C° 0 mm 5 mps 745 mmHg 84%
    14:00 +7°C° 0 mm 4 mps 745 mmHg 84%
    15:00 +6°C° 0.1 mm 4 mps 745 mmHg 86%
    16:00 +6°C° 0.1 mm 4 mps 746 mmHg 88%
    17:00 +6°C° 0.1 mm 4 mps 746 mmHg 90%
    18:00 +5°C° 0.1 mm 4 mps 746 mmHg 89%
    19:00 +5°C° 0.1 mm 4 mps 746 mmHg 87%
    20:00 +5°C° 0.1 mm 5 mps 746 mmHg 86%
    21:00 +5°C° 0.1 mm 5 mps 746 mmHg 84%
    22:00 +5°C° 0.1 mm 5 mps 746 mmHg 83%
    23:00 +3°C° 0.1 mm 5 mps 746 mmHg 81%

    Day after tomorrow, 27 November, Monday

    Time Temperature Precipitation Wind Pressure Humidity
    00:00 +3°C° 0.1 mm 5 mps 746 mmHg 81%
    01:00 +3°C° 0.1 mm 5 mps 746 mmHg 82%
    02:00 +3°C° 0.1 mm 4 mps 746 mmHg 83%
    03:00 +3°C° 0.2 mm 4 mps 746 mmHg 84%
    04:00 +3°C° 0.2 mm 4 mps 745 mmHg 86%
    05:00 +3°C° 0.2 mm 4 mps 745 mmHg 88%
    06:00 +3°C° 0.7 mm 4 mps 746 mmHg 88%
    07:00 +3°C° 0.7 mm 4 mps 746 mmHg 89%
    08:00 +3°C° 0.7 mm 3 mps 746 mmHg 90%
    09:00 +3°C° 0.8 mm 3 mps 746 mmHg 90%
    10:00 +3°C° 0.8 mm 3 mps 746 mmHg 90%
    11:00 +3°C° 0.8 mm 3 mps 747 mmHg 90%
    12:00 +3°C° 0.7 mm 3 mps 747 mmHg 90%
    13:00 +3°C° 0.7 mm 3 mps 747 mmHg 90%
    14:00 +3°C° 0.7 mm 3 mps 747 mmHg 90%
    15:00 +4°C° 0.4 mm 2 mps 747 mmHg 90%
    16:00 +4°C° 0.4 mm 2 mps 747 mmHg 91%
    17:00 +4°C° 0.4 mm 2 mps 747 mmHg 91%
    18:00 +4°C° 0.1 mm 2 mps 747 mmHg 91%
    19:00 +3°C° 0.1 mm 2 mps 748 mmHg 91%
    20:00 +3°C° 0.1 mm 2 mps 748 mmHg 92%
    21:00 +3°C° 0.1 mm 2 mps 748 mmHg 92%
    22:00 +3°C° 0.1 mm 2 mps 748 mmHg 92%
    23:00 +3°C° 0.1 mm 2 mps 748 mmHg 92%

    28 November, Tuesday

    Time Temperature Precipitation Wind Pressure Humidity
    00:00 +3°C° 0.1 mm 2 mps 748 mmHg 92%
    01:00 +2°C° 0.1 mm 2 mps 748 mmHg 93%
    02:00 +2°C° 0.1 mm 2 mps 748 mmHg 93%
    03:00 +2°C° 0.2 mm 2 mps 748 mmHg 93%
    04:00 +2°C° 0.2 mm 2 mps 748 mmHg 93%
    05:00 +2°C° 0.2 mm 2 mps 748 mmHg 93%
    06:00 +2°C° 0 mm 2 mps 748 mmHg 93%
    07:00 +2°C° 0 mm 2 mps 748 mmHg 94%
    08:00 +2°C° 0 mm 2 mps 748 mmHg 94%
    09:00 +2°C° 0 mm 2 mps 748 mmHg 92%
    10:00 +3°C° 0 mm 2 mps 748 mmHg 91%
    11:00 +3°C° 0 mm 2 mps 748 mmHg 89%
    12:00 +3°C° 0.2 mm 2 mps 747 mmHg 89%
    13:00 +4°C° 0.2 mm 2 mps 747 mmHg 90%
    14:00 +3°C° 0.2 mm 3 mps 747 mmHg 90%
    15:00 +3°C° 0.1 mm 3 mps 746 mmHg 91%
    16:00 +2°C° 0.1 mm 3 mps 746 mmHg 91%
    17:00 +2°C° 0.1 mm 3 mps 746 mmHg 92%
    18:00 +2°C° 0 mm 3 mps 746 mmHg 91%
    19:00 +1°C° 0 mm 4 mps 746 mmHg 89%
    20:00 +1°C° 0 mm 4 mps 746 mmHg 88%
    21:00 +1°C° 0 mm 4 mps 745 mmHg 87%
    22:00 +1°C° 0 mm 4 mps 745 mmHg 85%
    23:00 +1°C° 0 mm 4 mps 745 mmHg 83%

    29 November, Wednesday

    Time Temperature Precipitation Wind Pressure Humidity
    00:00 0°C° 0 mm 4 mps 745 mmHg 84%
    01:00 0°C° 0 mm 4 mps 745 mmHg 84%
    02:00 -1°C° 0 mm 4 mps 744 mmHg 84%
    03:00 -1°C° 0 mm 4 mps 744 mmHg 84%
    04:00 -1°C° 0 mm 4 mps 744 mmHg 84%
    05:00 -1°C° 0 mm 4 mps 743 mmHg 84%
    06:00 -1°C° 0 mm 4 mps 743 mmHg 84%
    07:00 -1°C° 0 mm 4 mps 743 mmHg 83%
    08:00 -1°C° 0 mm 5 mps 743 mmHg 83%
    09:00 0°C° 0.1 mm 5 mps 743 mmHg 84%
    10:00 0°C° 0.1 mm 5 mps 743 mmHg 85%
    11:00 0°C° 0.1 mm 5 mps 743 mmHg 86%
    12:00 +1°C° 0.1 mm 5 mps 742 mmHg 86%
    13:00 +1°C° 0.1 mm 4 mps 742 mmHg 87%
    14:00 +1°C° 0.1 mm 4 mps 742 mmHg 87%
    15:00 +1°C° 0 mm 4 mps 742 mmHg 89%
    16:00 +1°C° 0 mm 4 mps 742 mmHg 90%
    17:00 +1°C° 0 mm 4 mps 742 mmHg 91%
    18:00 +3°C° 0.1 mm 4 mps 742 mmHg 91%
    19:00 +3°C° 0.1 mm 4 mps 742 mmHg 91%
    20:00 +2°C° 0.1 mm 5 mps 742 mmHg 92%
    21:00 +3°C° 0.1 mm 4 mps 742 mmHg 92%
    22:00 +3°C° 0.1 mm 4 mps 742 mmHg 93%
    23:00 +3°C° 0.1 mm 4 mps 742 mmHg 93%

    30 November, Thursday

    Time Temperature Precipitation Wind Pressure Humidity
    00:00 +3°C° 0.2 mm 4 mps 742 mmHg 93%
    01:00 +3°C° 0.2 mm 3 mps 742 mmHg 93%
    02:00 +4°C° 0.2 mm 3 mps 743 mmHg 93%
    03:00 +3°C° 0 mm 3 mps 743 mmHg 94%
    04:00 +3°C° 0 mm 3 mps 742 mmHg 95%
    05:00 +2°C° 0 mm 3 mps 742 mmHg 95%
    06:00 +2°C° 0 mm 3 mps 742 mmHg 96%
    07:00 +2°C° 0 mm 3 mps 742 mmHg 96%
    08:00 +2°C° 0 mm 3 mps 742 mmHg 96%
    09:00 +1°C° 0 mm 4 mps 742 mmHg 93%
    10:00 +2°C° 0 mm 5 mps 742 mmHg 89%
    11:00 +3°C° 0 mm 5 mps 742 mmHg 86%
    12:00 +3°C° 0 mm 6 mps 741 mmHg 80%
    13:00 +4°C° 0 mm 6 mps 740 mmHg 74%
    14:00 +4°C° 0 mm 7 mps 740 mmHg 68%
    15:00 +4°C° 0.1 mm 6 mps 739 mmHg 71%
    16:00 +4°C° 0.1 mm 6 mps 739 mmHg 75%
    17:00 +4°C° 0.1 mm 6 mps 738 mmHg 78%
    18:00 +5°C° 0.5 mm 6 mps 738 mmHg 80%
    19:00 +5°C° 0.5 mm 7 mps 737 mmHg 82%
    20:00 +5°C° 0.5 mm 7 mps 737 mmHg 84%
    21:00 +6°C° 0.5 mm 7 mps 737 mmHg 85%
    22:00 +6°C° 0.5 mm 7 mps 737 mmHg 86%
    23:00 +6°C° 0.5 mm 7 mps 737 mmHg 87%
    Show more